Simultaneous Nadir Overpasses (SNOs) Predictions

Prediction of SNOs between GOES-17 and TERRA Satellite Orbit:

Table of predicted SNOs for the next 14.0 days since TLE Epoch: 11/4/2022
Index Date Time (GOES-17) GOES-17 Lat,Lon TERRA Lat,Lon Distance(km) Time Diff (sec)
1 11/06/2022 07:18:36 0.04,-137.32 0.19,-136.58 84.25 80
2 11/06/2022 19:38:57 -0.04,-137.32 0.82,-141.53 477.62 80
3 11/08/2022 19:23:17 -0.04,-137.31 0.04,-137.74 48.21 80
4 11/10/2022 19:10:17 -0.03,-137.30 -0.76,-133.95 380.69 80
5 11/11/2022 07:30:47 0.03,-137.29 -0.33,-138.92 186.36 80
6 11/13/2022 07:12:27 0.02,-137.26 0.50,-135.14 241.93 80
7 11/13/2022 19:32:48 -0.02,-137.26 0.57,-140.08 320.61 80
8 11/15/2022 19:19:47 -0.01,-137.23 -0.22,-136.29 107.22 80
9 11/16/2022 07:40:17 0.01,-137.22 -0.85,-141.26 459.82 80
10 11/18/2022 07:24:36 0.01,-137.18 -0.03,-137.47 32.43 80
